QFA7305 YBBN-YMML

Flight info

Callsign QFA7305
Flight time N/A
Altitude 34000
Route BN H91 SANEG Q35 DORSU H119 ML
Aircraft A321/M-SDE3FGHIRWY/LB1

Departure

Time 2026-04-30 08:45
Airport Brisbane International Airport (YBBN)

Arrival

Time N/A
Airport Melbourne Airport (YMML)
Time Latitude Longitude Altitude Speed Heading
2026-04-30 08:17 -27.38466 153.12124 45 ft 0 kts 297°
2026-04-30 08:17 -27.38474 153.12140 45 ft 0 kts 297°
2026-04-30 08:18 -27.38474 153.12141 45 ft 0 kts 297°
2026-04-30 08:36 -27.38477 153.12147 18 ft 4 kts 297°
2026-04-30 08:36 -27.38489 153.12173 19 ft 2 kts 297°
2026-04-30 08:36 -27.38497 153.12196 20 ft 4 kts 271°
2026-04-30 08:37 -27.38491 153.12220 21 ft 4 kts 221°
2026-04-30 08:37 -27.38469 153.12234 19 ft 4 kts 192°
2026-04-30 08:37 -27.38443 153.12237 20 ft 4 kts 167°
2026-04-30 08:37 -27.38432 153.12233 18 ft 1 kts 153°
2026-04-30 08:39 -27.38432 153.12234 18 ft 0 kts 153°
2026-04-30 08:40 -27.38432 153.12233 18 ft 0 kts 153°
2026-04-30 08:42 -27.38455 153.12246 18 ft 10 kts 153°
2026-04-30 08:42 -27.38507 153.12316 18 ft 12 kts 118°
2026-04-30 08:42 -27.38547 153.12389 18 ft 10 kts 111°
2026-04-30 08:42 -27.38524 153.12460 18 ft 12 kts 35°
2026-04-30 08:43 -27.38437 153.12512 18 ft 17 kts 27°
2026-04-30 08:43 -27.38318 153.12581 20 ft 22 kts 27°
2026-04-30 08:43 -27.38171 153.12664 18 ft 24 kts 27°
2026-04-30 08:43 -27.38041 153.12737 19 ft 19 kts 26°
2026-04-30 08:44 -27.38005 153.12847 20 ft 16 kts 112°
2026-04-30 08:44 -27.38051 153.12953 20 ft 14 kts 117°
2026-04-30 08:44 -27.38091 153.13039 21 ft 11 kts 117°
2026-04-30 08:44 -27.38147 153.13040 21 ft 11 kts 204°
2026-04-30 08:45 -27.38364 153.12919 23 ft 69 kts 207°
2026-04-30 08:45 -27.38984 153.12565 20 ft 128 kts 207°
2026-04-30 08:45 -27.39919 153.12031 83 ft 167 kts 206°
2026-04-30 08:45 -27.40955 153.11440 728 ft 165 kts 206°
2026-04-30 08:46 -27.41979 153.10875 1386 ft 163 kts 194°
2026-04-30 08:46 -27.43064 153.10859 1920 ft 155 kts 162°
2026-04-30 08:46 -27.44044 153.11342 2320 ft 157 kts 149°
2026-04-30 08:46 -27.45053 153.11985 2471 ft 175 kts 148°
2026-04-30 08:47 -27.46116 153.12672 2886 ft 178 kts 147°
2026-04-30 08:47 -27.47215 153.13377 3107 ft 192 kts 147°
2026-04-30 08:47 -27.48432 153.14150 3270 ft 209 kts 148°
2026-04-30 08:47 -27.49825 153.14731 3790 ft 219 kts 170°
2026-04-30 08:48 -27.51426 153.14589 4063 ft 245 kts 186°
2026-04-30 08:48 -27.53150 153.14177 4519 ft 258 kts 188°
2026-04-30 08:48 -27.54916 153.13723 5202 ft 262 kts 188°
2026-04-30 08:48 -27.56684 153.13142 5905 ft 267 kts 194°
2026-04-30 08:49 -27.58447 153.12448 6615 ft 270 kts 195°
2026-04-30 08:49 -27.60216 153.11733 7274 ft 273 kts 195°
2026-04-30 08:49 -27.62022 153.11011 7931 ft 276 kts 194°
2026-04-30 08:49 -27.63831 153.10356 8540 ft 279 kts 193°
2026-04-30 08:50 -27.65704 153.09726 9169 ft 282 kts 192°
2026-04-30 08:50 -27.67605 153.09104 9803 ft 286 kts 192°
2026-04-30 08:50 -27.69546 153.08473 10283 ft 296 kts 193°
2026-04-30 08:50 -27.71584 153.07812 10542 ft 311 kts 193°
2026-04-30 08:51 -27.73732 153.07109 10680 ft 331 kts 193°
2026-04-30 08:51 -27.76003 153.06356 10841 ft 349 kts 194°
2026-04-30 08:51 -27.78328 153.05576 11268 ft 356 kts 194°
2026-04-30 08:51 -27.80703 153.04733 11809 ft 360 kts 199°
2026-04-30 08:52 -27.82966 153.03454 12363 ft 366 kts 211°
2026-04-30 08:52 -27.85061 153.01793 12928 ft 370 kts 213°
2026-04-30 08:52 -27.87175 153.00093 13520 ft 373 kts 213°
2026-04-30 08:52 -27.89304 152.98388 14083 ft 376 kts 213°
2026-04-30 08:53 -27.91450 152.96678 14590 ft 379 kts 213°
2026-04-30 08:53 -27.93618 152.94952 15093 ft 382 kts 214°
2026-04-30 08:53 -27.95798 152.93217 15599 ft 385 kts 214°
2026-04-30 08:53 -27.97968 152.91485 16095 ft 388 kts 214°
2026-04-30 08:54 -28.00177 152.89718 16586 ft 390 kts 214°
2026-04-30 08:54 -28.02399 152.87938 17067 ft 393 kts 214°
2026-04-30 08:54 -28.04643 152.86139 17560 ft 396 kts 214°
2026-04-30 08:54 -28.06877 152.84347 18026 ft 398 kts 214°
2026-04-30 08:55 -28.09157 152.82519 18496 ft 401 kts 214°
2026-04-30 08:55 -28.11438 152.80686 18901 ft 404 kts 214°
2026-04-30 08:55 -28.13735 152.78842 19316 ft 406 kts 215°
2026-04-30 08:55 -28.16016 152.77008 19732 ft 407 kts 215°
2026-04-30 08:56 -28.18332 152.75145 20144 ft 409 kts 215°
2026-04-30 08:56 -28.20661 152.73272 20551 ft 410 kts 215°
2026-04-30 08:56 -28.22996 152.71394 20963 ft 412 kts 215°
2026-04-30 08:56 -28.25339 152.69508 21374 ft 413 kts 215°
2026-04-30 08:57 -28.27690 152.67616 21776 ft 415 kts 216°
2026-04-30 08:57 -28.30053 152.65713 22173 ft 417 kts 216°
2026-04-30 08:57 -28.32388 152.63829 22570 ft 418 kts 216°
2026-04-30 08:57 -28.34764 152.61911 22975 ft 420 kts 216°
2026-04-30 08:58 -28.37155 152.59979 23365 ft 421 kts 216°
2026-04-30 08:58 -28.39550 152.58048 23753 ft 423 kts 216°
2026-04-30 08:58 -28.41955 152.56106 24078 ft 425 kts 216°
2026-04-30 08:58 -28.44371 152.54151 24388 ft 427 kts 216°
2026-04-30 08:59 -28.46792 152.52189 24699 ft 429 kts 216°
2026-04-30 08:59 -28.49222 152.50218 25008 ft 430 kts 216°
2026-04-30 08:59 -28.51634 152.48262 25290 ft 432 kts 216°
2026-04-30 08:59 -28.54083 152.46276 25574 ft 434 kts 216°
2026-04-30 09:00 -28.56556 152.44272 25858 ft 436 kts 216°
2026-04-30 09:00 -28.59032 152.42268 26142 ft 438 kts 216°
2026-04-30 09:00 -28.61516 152.40256 26426 ft 440 kts 216°
2026-04-30 09:00 -28.64010 152.38233 26708 ft 441 kts 216°
2026-04-30 09:01 -28.66515 152.36199 26994 ft 443 kts 216°
2026-04-30 09:01 -28.69033 152.34153 27279 ft 444 kts 216°
2026-04-30 09:01 -28.71525 152.32124 27552 ft 446 kts 217°
2026-04-30 09:01 -28.74048 152.30069 27818 ft 447 kts 217°
2026-04-30 09:02 -28.79127 152.25924 28352 ft 450 kts 217°
2026-04-30 09:02 -28.81677 152.23842 28631 ft 451 kts 217°
2026-04-30 09:02 -28.84229 152.21755 28880 ft 452 kts 217°
2026-04-30 09:03 -28.86796 152.19659 29141 ft 454 kts 217°
2026-04-30 09:03 -28.89367 152.17556 29401 ft 455 kts 217°
2026-04-30 09:03 -28.91908 152.15475 29688 ft 455 kts 217°
2026-04-30 09:03 -28.94473 152.13374 30047 ft 454 kts 217°
2026-04-30 09:04 -28.97043 152.11273 30394 ft 453 kts 217°
2026-04-30 09:04 -28.99597 152.09186 30699 ft 452 kts 217°
2026-04-30 09:04 -29.02148 152.07097 30985 ft 451 kts 217°
2026-04-30 09:04 -29.04694 152.05006 31275 ft 450 kts 217°
2026-04-30 09:05 -29.07234 152.02918 31559 ft 449 kts 217°
2026-04-30 09:05 -29.09769 152.00836 31861 ft 448 kts 217°
2026-04-30 09:05 -29.12295 151.98761 32144 ft 447 kts 217°
2026-04-30 09:05 -29.14819 151.96689 32431 ft 446 kts 217°
2026-04-30 09:06 -29.17298 151.94648 32732 ft 445 kts 218°
2026-04-30 09:06 -29.19802 151.92580 33024 ft 444 kts 218°
2026-04-30 09:06 -29.22307 151.90512 33307 ft 443 kts 218°
2026-04-30 09:06 -29.24808 151.88450 33598 ft 442 kts 218°
2026-04-30 09:07 -29.27305 151.86393 33871 ft 441 kts 218°
2026-04-30 09:07 -29.29790 151.84344 34154 ft 440 kts 218°
2026-04-30 09:07 -29.31436 151.82986 34324 ft 440 kts 218°
2026-04-30 09:07 -29.33914 151.80936 34393 ft 437 kts 218°
2026-04-30 09:08 -29.38827 151.76872 34392 ft 434 kts 218°
2026-04-30 09:08 -29.44519 151.72159 34388 ft 434 kts 218°
2026-04-30 09:09 -29.49408 151.68102 34390 ft 434 kts 218°
2026-04-30 09:09 -29.53615 151.64974 34395 ft 435 kts 211°
2026-04-30 09:10 -29.58889 151.61570 34390 ft 435 kts 211°
2026-04-30 09:10 -29.64162 151.58144 34402 ft 435 kts 211°
2026-04-30 09:11 -29.69430 151.54718 34398 ft 435 kts 211°
2026-04-30 09:11 -29.74700 151.51284 34391 ft 435 kts 211°
2026-04-30 09:12 -29.79977 151.47854 34406 ft 435 kts 211°
2026-04-30 09:12 -29.85215 151.44446 34406 ft 435 kts 211°
2026-04-30 09:13 -29.90478 151.41012 34390 ft 435 kts 211°
2026-04-30 09:13 -29.95741 151.37571 34392 ft 435 kts 211°
2026-04-30 09:14 -30.00996 151.34127 34392 ft 434 kts 211°
2026-04-30 09:14 -30.06258 151.30681 34394 ft 434 kts 211°
2026-04-30 09:15 -30.11507 151.27231 34393 ft 434 kts 211°
2026-04-30 09:15 -30.16724 151.23806 34391 ft 434 kts 211°
2026-04-30 09:16 -30.21976 151.20359 34393 ft 434 kts 211°
2026-04-30 09:16 -30.27233 151.16903 34388 ft 434 kts 211°
2026-04-30 09:17 -30.32485 151.13435 34389 ft 434 kts 211°
2026-04-30 09:17 -30.37745 151.09954 34390 ft 435 kts 211°
2026-04-30 09:18 -30.42964 151.06499 34388 ft 435 kts 211°
2026-04-30 09:18 -30.48227 151.03020 34392 ft 435 kts 211°
2026-04-30 09:19 -30.53489 150.99538 34393 ft 435 kts 211°
2026-04-30 09:19 -30.58702 150.96077 34389 ft 434 kts 211°
2026-04-30 09:20 -30.63951 150.92595 34385 ft 434 kts 211°
2026-04-30 09:20 -30.69196 150.89104 34373 ft 434 kts 211°
2026-04-30 09:21 -30.74402 150.85634 34369 ft 434 kts 211°
2026-04-30 09:21 -30.79648 150.82132 34368 ft 434 kts 211°
2026-04-30 09:22 -30.84899 150.78626 34377 ft 435 kts 211°
2026-04-30 09:22 -30.90123 150.75140 34374 ft 434 kts 211°
2026-04-30 09:23 -30.95375 150.71633 34374 ft 434 kts 211°
2026-04-30 09:23 -31.00580 150.68132 34374 ft 434 kts 211°
2026-04-30 09:24 -31.05800 150.64580 34371 ft 434 kts 215°
2026-04-30 09:24 -31.10428 150.60095 34369 ft 432 kts 222°
2026-04-30 09:25 -31.14887 150.55462 34358 ft 432 kts 222°
2026-04-30 09:25 -31.19381 150.50789 34353 ft 432 kts 222°
2026-04-30 09:26 -31.23865 150.46101 34351 ft 433 kts 222°
2026-04-30 09:26 -31.28352 150.41407 34355 ft 433 kts 222°
2026-04-30 09:27 -31.32848 150.36719 34360 ft 433 kts 222°
2026-04-30 09:27 -31.37305 150.32052 34364 ft 433 kts 222°
2026-04-30 09:28 -31.41790 150.27343 34367 ft 433 kts 222°
2026-04-30 09:28 -31.46273 150.22636 34369 ft 432 kts 222°
2026-04-30 09:29 -31.50752 150.17922 34373 ft 432 kts 222°
2026-04-30 09:29 -31.55192 150.13245 34368 ft 432 kts 222°
2026-04-30 09:30 -31.59665 150.08532 34370 ft 432 kts 222°
2026-04-30 09:30 -31.64148 150.03810 34376 ft 432 kts 222°
2026-04-30 09:31 -31.68586 149.99127 34377 ft 432 kts 222°
2026-04-30 09:31 -31.73056 149.94399 34380 ft 432 kts 222°
2026-04-30 09:32 -31.77525 149.89664 34381 ft 432 kts 222°
2026-04-30 09:32 -31.81961 149.84953 34385 ft 432 kts 222°
2026-04-30 09:33 -31.86372 149.80145 34384 ft 432 kts 225°
2026-04-30 09:33 -31.90576 149.75079 34384 ft 432 kts 227°
2026-04-30 09:34 -31.94710 149.69933 34381 ft 432 kts 226°
2026-04-30 09:34 -31.98854 149.64859 34384 ft 432 kts 226°
2026-04-30 09:35 -32.03050 149.59779 34382 ft 433 kts 226°
2026-04-30 09:35 -32.07251 149.54688 34383 ft 433 kts 226°
2026-04-30 09:36 -32.11440 149.49592 34383 ft 432 kts 226°
2026-04-30 09:36 -32.15610 149.44520 34376 ft 432 kts 226°
2026-04-30 09:37 -32.19799 149.39427 34369 ft 433 kts 226°
2026-04-30 09:37 -32.23989 149.34310 34369 ft 433 kts 226°
2026-04-30 09:38 -32.28423 149.29558 34368 ft 433 kts 219°
2026-04-30 09:38 -32.33107 149.25080 34368 ft 434 kts 219°
2026-04-30 09:39 -32.37816 149.20606 34366 ft 434 kts 219°
2026-04-30 09:39 -32.42514 149.16116 34367 ft 434 kts 219°
2026-04-30 09:40 -32.47177 149.11637 34364 ft 434 kts 219°
2026-04-30 09:40 -32.51873 149.07118 34368 ft 435 kts 219°
2026-04-30 09:41 -32.56579 149.02589 34365 ft 435 kts 219°
2026-04-30 09:41 -32.61258 148.98080 34367 ft 436 kts 219°
2026-04-30 09:42 -32.65955 148.93539 34367 ft 436 kts 219°
2026-04-30 09:42 -32.70669 148.88981 34370 ft 436 kts 219°
2026-04-30 09:43 -32.75370 148.84435 34367 ft 436 kts 219°
2026-04-30 09:43 -32.80045 148.79898 34366 ft 436 kts 219°
2026-04-30 09:44 -32.84755 148.75334 34370 ft 437 kts 219°
2026-04-30 09:44 -32.89466 148.70753 34369 ft 437 kts 219°
2026-04-30 09:45 -32.94169 148.66169 34384 ft 437 kts 219°
2026-04-30 09:45 -32.98878 148.61576 34368 ft 437 kts 219°
2026-04-30 09:46 -33.03587 148.56971 34371 ft 437 kts 220°
2026-04-30 09:46 -33.08265 148.52403 34370 ft 438 kts 219°
2026-04-30 09:47 -33.12977 148.47796 34364 ft 438 kts 220°
2026-04-30 09:47 -33.17688 148.43176 34363 ft 438 kts 220°
2026-04-30 09:48 -33.22399 148.38547 34361 ft 438 kts 220°
2026-04-30 09:48 -33.27069 148.33945 34356 ft 438 kts 220°
2026-04-30 09:49 -33.31778 148.29310 34357 ft 439 kts 220°
2026-04-30 09:49 -33.36498 148.24655 34351 ft 439 kts 220°
2026-04-30 09:50 -33.41210 148.20008 34354 ft 439 kts 220°
2026-04-30 09:50 -33.45897 148.15370 34355 ft 440 kts 220°
2026-04-30 09:51 -33.50610 148.10694 34356 ft 440 kts 220°
2026-04-30 09:51 -33.55329 148.06006 34353 ft 440 kts 220°
2026-04-30 09:52 -33.60051 148.01317 34349 ft 441 kts 220°
2026-04-30 09:52 -33.64778 147.96619 34349 ft 441 kts 220°
2026-04-30 09:53 -33.69510 147.91911 34350 ft 442 kts 220°
2026-04-30 09:53 -33.74211 147.87216 34348 ft 443 kts 220°
2026-04-30 09:54 -33.78954 147.82483 34346 ft 443 kts 220°
2026-04-30 09:54 -33.83704 147.77731 34348 ft 444 kts 220°
2026-04-30 09:55 -33.88416 147.73000 34348 ft 444 kts 220°
2026-04-30 09:55 -33.93164 147.68229 34349 ft 444 kts 220°
2026-04-30 09:56 -33.97906 147.63462 34351 ft 445 kts 220°
2026-04-30 09:56 -34.02661 147.58682 34350 ft 445 kts 220°
2026-04-30 09:57 -34.07417 147.53891 34352 ft 445 kts 221°
2026-04-30 09:57 -34.12143 147.49115 34352 ft 446 kts 221°
2026-04-30 09:58 -34.16902 147.44287 34354 ft 446 kts 221°
2026-04-30 09:58 -34.21630 147.39488 34356 ft 447 kts 221°
2026-04-30 09:59 -34.31169 147.29815 34357 ft 447 kts 221°
2026-04-30 10:00 -34.38288 147.22578 34356 ft 448 kts 221°
2026-04-30 10:01 -34.45437 147.15280 34359 ft 448 kts 222°
2026-04-30 10:02 -34.52587 147.07970 34358 ft 448 kts 222°
2026-04-30 10:02 -34.57318 147.03110 34358 ft 448 kts 223°
2026-04-30 10:03 -34.62078 146.98224 34358 ft 448 kts 223°
2026-04-30 10:03 -34.66852 146.93326 34359 ft 448 kts 223°
2026-04-30 10:04 -34.71603 146.88441 34361 ft 448 kts 223°
2026-04-30 10:04 -34.76324 146.83563 34355 ft 448 kts 223°
2026-04-30 10:05 -34.81061 146.78655 34348 ft 447 kts 223°
2026-04-30 10:05 -34.85805 146.73744 34349 ft 448 kts 223°
2026-04-30 10:06 -34.90569 146.68831 34348 ft 448 kts 223°
2026-04-30 10:06 -34.95291 146.63932 34345 ft 448 kts 224°
2026-04-30 10:07 -35.00041 146.58981 34343 ft 449 kts 223°
2026-04-30 10:07 -35.04801 146.54040 34342 ft 449 kts 224°
2026-04-30 10:08 -35.09526 146.49120 34339 ft 449 kts 224°
2026-04-30 10:08 -35.14278 146.44147 34336 ft 449 kts 224°
2026-04-30 10:09 -35.19027 146.39171 34334 ft 450 kts 224°
2026-04-30 10:09 -35.23765 146.34217 34330 ft 450 kts 224°
2026-04-30 10:10 -35.28525 146.29226 34329 ft 451 kts 224°
2026-04-30 10:10 -35.33296 146.24220 34329 ft 451 kts 224°
2026-04-30 10:11 -35.38034 146.19229 34330 ft 452 kts 224°
2026-04-30 10:11 -35.42798 146.14195 34330 ft 452 kts 224°
2026-04-30 10:12 -35.47570 146.09164 34330 ft 452 kts 224°
2026-04-30 10:12 -35.52308 146.04149 34326 ft 452 kts 224°
2026-04-30 10:13 -35.57073 145.99097 34331 ft 452 kts 224°
2026-04-30 10:13 -35.61854 145.94024 34333 ft 452 kts 224°
2026-04-30 10:14 -35.66586 145.89001 34335 ft 452 kts 224°
2026-04-30 10:14 -35.73723 145.81407 34344 ft 452 kts 224°
2026-04-30 10:15 -35.78471 145.76343 34347 ft 451 kts 224°
2026-04-30 10:15 -35.83213 145.71277 34347 ft 450 kts 225°
2026-04-30 10:16 -35.87916 145.66240 34344 ft 450 kts 225°
2026-04-30 10:17 -35.94993 145.58637 34341 ft 449 kts 225°
2026-04-30 10:17 -36.02056 145.51026 34338 ft 449 kts 225°
2026-04-30 10:18 -36.06737 145.45986 34337 ft 448 kts 225°
2026-04-30 10:19 -36.13792 145.38365 34333 ft 448 kts 225°
2026-04-30 10:19 -36.18458 145.33314 34332 ft 448 kts 225°
2026-04-30 10:20 -36.23147 145.28229 34331 ft 448 kts 225°
2026-04-30 10:20 -36.30174 145.20595 34325 ft 448 kts 225°
2026-04-30 10:21 -36.32521 145.18043 34197 ft 448 kts 225°
2026-04-30 10:21 -36.34832 145.15524 33930 ft 448 kts 225°
2026-04-30 10:21 -36.37165 145.12975 33630 ft 447 kts 225°
2026-04-30 10:21 -36.39516 145.10408 32745 ft 453 kts 225°
2026-04-30 10:22 -36.41898 145.07805 32042 ft 454 kts 225°
2026-04-30 10:22 -36.44264 145.05226 31531 ft 450 kts 225°
2026-04-30 10:22 -36.46584 145.02697 30972 ft 448 kts 225°
2026-04-30 10:22 -36.48922 145.00146 30409 ft 446 kts 225°
2026-04-30 10:23 -36.51243 144.97609 29805 ft 443 kts 225°
2026-04-30 10:23 -36.53544 144.95088 29254 ft 438 kts 225°
2026-04-30 10:23 -36.55826 144.92584 28721 ft 434 kts 225°
2026-04-30 10:23 -36.58054 144.90132 28191 ft 430 kts 225°
2026-04-30 10:24 -36.60287 144.87673 27664 ft 427 kts 225°
2026-04-30 10:24 -36.62507 144.85229 27141 ft 423 kts 225°
2026-04-30 10:24 -36.64678 144.82835 26681 ft 417 kts 225°
2026-04-30 10:24 -36.66117 144.81263 26525 ft 419 kts 224°
2026-04-30 10:25 -36.68395 144.78826 26189 ft 440 kts 223°
2026-04-30 10:25 -36.71576 144.75501 25989 ft 458 kts 223°
2026-04-30 10:25 -36.74019 144.72899 25870 ft 466 kts 223°
2026-04-30 10:25 -36.76470 144.70215 25782 ft 472 kts 225°
2026-04-30 10:26 -36.78096 144.68402 25754 ft 475 kts 221°
2026-04-30 10:26 -36.80917 144.66207 25791 ft 483 kts 205°
2026-04-30 10:26 -36.84191 144.65132 25903 ft 493 kts 188°
2026-04-30 10:26 -36.88808 144.65487 26093 ft 502 kts 171°
2026-04-30 10:27 -36.92176 144.66538 26270 ft 506 kts 165°
2026-04-30 10:27 -36.94450 144.67420 26391 ft 508 kts 164°
2026-04-30 10:27 -36.97778 144.68729 26595 ft 508 kts 165°
2026-04-30 10:27 -37.01192 144.69898 26813 ft 508 kts 168°
2026-04-30 10:28 -37.04645 144.70856 27047 ft 507 kts 171°
2026-04-30 10:28 -37.08112 144.71633 27292 ft 505 kts 173°
2026-04-30 10:28 -37.11580 144.72292 27576 ft 504 kts 174°
2026-04-30 10:28 -37.15054 144.72910 27860 ft 502 kts 174°
2026-04-30 10:29 -37.18478 144.73522 28168 ft 501 kts 173°
2026-04-30 10:29 -37.21903 144.74290 28523 ft 500 kts 169°
2026-04-30 10:29 -37.25111 144.75905 29064 ft 498 kts 148°
2026-04-30 10:29 -37.27712 144.78745 29461 ft 498 kts 130°